Regional Weather Roundup
Issued by NWS

Home | Current Version | Previous Version | Text Only | Print | Product List | Glossary Off
Versions: 1 2 3 4 5 6 7 8 9 10 11 12 13 14 15 16 17 18 19 20 21 22 23 24 25 26 27 28 29 30 31 32 33 34 35 36 37 38 39 40 41 42 43 44 45 46 47 48 49 50

000
ASUS43 KMKX 230500
RWRWI

WISCONSIN REGIONAL WEATHER ROUNDUP
NATIONAL WEATHER SERVICE MILWAUKEE/SULLIVAN WI
1100 PM CST SAT NOV 22 2014

NOTE: "FAIR" INDICATES FEW OR NO CLOUDS BELOW 12,000 FEET WITH NO
SIGNIFICANT WEATHER AND/OR OBSTRUCTIONS TO VISIBILITY.

WIZ001-002-006>008-014>016-023>028-230600-
NORTHWEST WISCONSIN

CITY           SKY/WX    TMP DP  RH WIND       PRES   REMARKS
SUPERIOR ARPT  CLOUDY    34  32  92 SE5       29.58S WCI  30
ASHLAND        CLOUDY    35  33  92 S6        29.62F WCI  30
HAYWARD        CLOUDY    35  33  92 S8        29.59F FOG     WCI  29
SIREN          CLOUDY    37  36  96 SE7       29.56F FOG     WCI  31
CUMBERLAND     FOG       34  34 100 SE8       29.58F VSB 1/4 WCI  27
RICE LAKE      FOG       35  35  98 SE9       29.61F VSB 1/4 WCI  28
CHETEK         FOG       36  35  99 E10       29.60F VSB 1/2 WCI  28
LADYSMITH      FOG       36  35  97 SE7       29.64F VSB 3/4 WCI  30
EAU CLAIRE     NOT AVBL
MENOMONIE      FOG       36  35  98 E7        29.60F VSB<1/4 WCI  30
NEW RICHMOND   FOG       37  37 100 SE8       29.55F VSB 1   WCI  30
OSCEOLA        CLOUDY    37  37 100 SE12      29.56F FOG     WCI  29
$$

WIZ003>005-009-010-017-018-230600-
NORTH CENTRAL WISCONSIN

CITY           SKY/WX    TMP DP  RH WIND       PRES   REMARKS
MANITOWISH WTR CLOUDY    33  33 100 S9        29.65S FOG     WCI  25
ARBOR VITAE    CLOUDY    37  36  96 S12       29.66S FOG     WCI  29
WOODRUFF       CLOUDY    37  36  96 S12       29.66S FOG     WCI  29
RHINELANDER    FOG       34  34 100 S3        29.67F VSB 3/4
EAGLE RIVER    CLOUDY    34  34 100 S8        29.67S FOG     WCI  27
LAND O LAKES   CLOUDY    34  34 100 S8        29.66F FOG     WCI  27
PHILLIPS       CLOUDY    34  34 100 SE6       29.64S FOG     WCI  29
TOMAHAWK       FOG       34  33  96 CALM      29.67F VSB 3/4
MEDFORD        FOG       35  35 100 SE7       29.65F VSB 1/2 WCI  29
MERRILL        FOG       35  35 100 CALM      29.69S VSB 1/2
$$

WIZ029-030-035-036-043>047-230600-
CENTRAL WISCONSIN

CITY           SKY/WX    TMP DP  RH WIND       PRES   REMARKS
WAUSAU         FOG       35  35 100 SE5       29.67F VSB 1/4 WCI  31
MOSINEE        SNOW      34  34 100 SE5       29.69F VSB 1/4 WCI  30
MARSHFIELD     FOG       38  37  97 SE6       29.66F VSB 1/4 WCI  33
STEVENS POINT  CLOUDY    37  37 100 SE3       29.70F FOG
WAUPACA        FOG       40  39  96 CALM      29.73F VSB 1
WAUTOMA        FOG       43  43 100 SE5       29.72F VSB 1/2
WISC RAPIDS    FOG       40  38  93 SE6       29.69F VSB 1/2
CAMP DOUGLAS   CLOUDY    45  45 100 SE5       29.67F FOG
$$

WIZ011>013-019>022-031-037>040-048>050-230600-
NORTHEAST WISCONSIN

CITY           SKY/WX    TMP DP  RH WIND       PRES   REMARKS
ANTIGO         FOG       33  33 100 S6        29.70F VSB 1/4 WCI  28
SHAWANO        FOG       39  38  94 CALM      29.73F VSB 3/4
OCONTO         CLOUDY    37  37 100 S3        29.75F VSB 1/4
STURGEON BAY   CLOUDY    39  37  93 S8        29.76F VSB 1/4 WCI  34
GREEN BAY      CLOUDY    39  38  96 S7        29.74F FOG     WCI  34
MANITOWOC      NOT AVBL
APPLETON       FOG       39  39 100 VRB5      29.74F VSB 1/2
CLINTONVILLE   FOG       36  36 100 S3        29.72F VSB 1/4
OSHKOSH        CLOUDY    45  43  93 S10       29.74F FOG
$$

WIZ032>034-041-042-053>061-230600-
SOUTHWEST WISCONSIN

CITY           SKY/WX    TMP DP  RH WIND       PRES   REMARKS
LA CROSSE      CLOUDY    47  45  93 S13       29.63F FOG
SPARTA         CLOUDY    48  47  97 S9        29.67F FOG
VIROQUA        CLOUDY    47  47 100 S10       29.67S VSB 1/4
BOSCOBEL       CLOUDY    54  49  83 S8G17     29.69F
PRAIRIE DU CHI CLOUDY    53  49  87 S3        29.68F
PLATTEVILLE    CLOUDY    51  49  94 S10       29.74S
$$

WIZ056-057-062-063-064-067-068-230600-
SOUTH CENTRAL WISCONSIN

CITY           SKY/WX    TMP DP  RH WIND       PRES   REMARKS
REEDSBURG      CLOUDY    49  48  99 S6        29.70F FOG
BARABOO/DELLS  FOG       47  46  95 S8        29.71F VSB 3/4
LONE ROCK      CLOUDY    55  48  77 S9        29.72F HAZE
MINERAL POINT  CLOUDY    52  50  93 S9        29.73F FOG
MADISON        CLOUDY    50  47  89 S10       29.75F
MIDDLETON      CLOUDY    51  50  97 S3        29.75F
WATERTOWN      CLOUDY    46  46 100 S5        29.77F FOG
MONROE         CLOUDY    48  46  93 S17       29.75F
JANESVILLE     CLOUDY    50  46  87 S7        29.78F
$$

WIZ051-052-058>065-066-070>072-230600-
SOUTHEAST WISCONSIN

CITY           SKY/WX    TMP DP  RH WIND       PRES   REMARKS
MILWAUKEE      MOCLDY    47  44  90 SW8       29.80F
WAUKESHA       CLOUDY    45  45 100 S5        29.80F FOG
MILWAUKEE/TIMM MOCLDY    48  45  87 S8        29.80F
RACINE         CLOUDY    49  45  86 S7        29.82S
BURLINGTON     CLOUDY    47  45  91 S10       29.80F
KENOSHA        CLOUDY    50  46  86 SW9       29.81F
FOND DU LAC    CLOUDY    48  45  89 S10       29.75F
SHEBOYGAN      FOG       42  41  96 S6        29.77F VSB 1/2
WEST BEND      CLOUDY    48  46  93 SW10G16   29.78S
JUNEAU         CLOUDY    46  45  97 S10       29.77F FOG
$$

LSZ147-162-230600-
LAKE SUPERIOR

STATION/POSITION TIME  TEMP    WIND        PRES    WAVE
                       AIR SEA DIR/SP/G            HT/PER
                 (UTC) (F)     (DEG/KT/KT) (MB)    (FT/S)
DEVILS ISLAND    0400   35     170/  9/ 12 1004.1F
PORT WING        0400   35      90/  3/ 10 1003.0F
SAXON HARBOR     0440   37      CALM  /  1 1003.0F
$$

LMZ867-665-643>646-230600-
LAKE MICHIGAN

STATION/POSITION TIME  TEMP    WIND        PRES    WAVE
                       AIR SEA DIR/SP/G            HT/PER
                 (UTC) (F)     (DEG/KT/KT) (MB)    (FT/S)
CHAMBERS ISLAND  0400   38     170/  4/  8 1008.5F
N MID LAKE BUOY  0350   41 42  240/ 16/ 17 1008.9R   4/ 7
NORTHPORT PIER   0400   38     220/  2/  8 1008.5S
SISTER BAY       0313          250/  9/ 11   N/A
KEWAUNEE LAKESHO 0400   37     190/  5/  7 1007.4F
SHEBOYGAN LAKESH 0400   44 37  170/  8/  9 1009.5R
PORT WASHINGTON  0440   38     270/  3/  4 1009.5F
ATWATER BUOY     0400   45        CALM     1010.3F
MILWAUKEE LAKESH 0400   44     140/  4/  5   N/A
S MID LAKE BUOY  0350   46 42  190/ 14/ 16 1010.9R   2/ 4
KENOSHA   LAKESH 0400   51     220/  9/ 15 1009.8F
$$

TC  - TEMPERATURE IN CELSIUS
VSB - VISIBILITY IN STATUTE MILES
WCI - WIND CHILL INDEX
HX  - HEAT INDEX




USA.gov is the U.S. government's official web portal to all federal, state and local government web resources and services.